Dewpoint
59 54 52 53 47 45 39 34 36 35 37 46 47 46 43 47 44 48 65 63 63 67 67 66 71 71 70 70 70 71 70 68 67 65 64 63 61 61 61 60 60 60 60 60 61 61 61 61 61
57 50 51 51 42 42 40 36 34 35 51 51 49 51 50 52 60 63 64 64 65 66 63 65 71 71 70 70 71 69 67 65 63 62 60 60 60 61 60 60 60 60 61 61 61 60 60 60 61
57 51 48 47 44 38 39 39 34 45 54 52 52 56 55 58 62 62 63 65 67 64 63 67 71 71 71 71 69 67 64 62 60 59 59 60 60 59 59 59 59 59 60 60 60 60 60 60 60
48 46 48 42 41 42 41 39 36 51 55 56 55 54 61 63 62 63 66 67 64 63 65 70 71 71 71 70 67 64 60 58 58 58 59 59 59 59 58 58 58 59 59 60 59 60 59 59 59
48 44 35 34 35 43 42 41 37 49 53 55 56 56 59 63 65 65 65 65 63 63 65 68 72 71 70 68 64 60 60 59 59 59 58 59 59 58 58 58 58 58 58 58 58 59 58 58 58
41 42 27 29 28 43 43 42 42 47 54 56 56 56 60 65 66 67 66 64 63 63 65 67 70 71 69 65 61 59 59 59 59 60 59 58 58 58 58 58 57 56 57 58 58 58 56 56 58
40 35 26 24 28 36 43 43 45 46 53 55 57 54 61 64 66 67 66 64 64 65 67 68 68 67 66 63 62 60 59 58 58 58 57 57 57 57 57 57 55 56 57 57 55 54 53 54 56
42 39 27 30 29 34 43 43 45 48 51 58 57 54 59 64 67 67 66 65 65 67 68 68 66 61 53 51 63 62 58 57 56 56 55 54 54 55 55 53 54 55 56 54 54 53 52 51 54
46 32 25 29 33 33 42 42 45 52 54 57 58 57 60 65 67 66 64 64 65 67 67 66 62 53 48 47 55 56 55 54 54 52 51 50 43 45 47 53 54 54 54 54 53 53 51 48 47
42 32 26 30 36 37 41 43 45 49 53 56 58 62 63 65 65 63 63 63 64 66 66 63 56 49 45 42 45 46 45 41 39 41 41 40 42 44 44 49 51 51 51 49 49 49 47 47 38
42 37 31 36 40 41 41 43 46 48 50 51 56 61 64 64 63 62 62 63 64 65 64 60 53 50 46 45 45 45 46 42 41 40 39 40 41 42 43 43 43 44 48 41 43 42 40 40 39
41 39 35 40 42 39 38 40 41 47 47 52 57 62 63 63 61 61 62 63 65 64 63 57 50 50 48 45 43 44 43 41 41 41 39 40 41 42 42 42 43 43 42 41 42 40 40 39 42
40 39 38 38 42 40 38 36 38 42 50 55 59 62 63 62 61 61 62 62 63 64 62 55 50 49 47 45 45 44 42 41 42 43 42 42 42 42 42 43 43 43 43 42 41 40 39 39 43
41 40 38 36 38 39 37 34 37 37 46 56 60 61 62 61 61 62 62 62 63 63 60 55 50 48 47 46 45 43 41 41 43 44 44 44 44 44 44 44 44 43 44 43 41 40 40 39 41
41 42 39 36 36 37 37 35 34 36 51 57 60 60 62 61 62 62 63 63 63 62 57 53 49 47 47 47 46 44 42 40 42 43 43 43 45 45 45 45 45 45 46 45 44 42 42 41 40
39 38 34 33 34 35 34 29 33 37 50 56 59 59 61 61 62 63 62 62 62 59 52 49 47 48 46 47 47 43 42 41 41 43 44 44 44 45 45 46 45 46 46 46 45 44 43 42 42
39 32 32 29 33 32 32 31 35 44 50 52 57 58 59 61 62 62 62 60 58 54 50 50 49 47 47 47 47 45 44 42 41 42 43 44 44 45 45 46 46 46 47 46 46 44 44 42 43
35 30 31 29 30 30 30 31 35 44 50 51 55 58 58 59 61 61 61 60 60 58 55 52 49 47 47 48 48 47 46 45 43 42 42 43 46 46 47 48 47 48 47 47 47 45 45 44 44
35 35 31 31 31 29 26 29 32 40 49 51 53 57 57 59 61 62 61 61 60 60 58 53 49 47 47 48 48 47 46 46 45 45 46 45 45 46 48 48 47 48 47 47 47 46 45 43 45
35 35 32 31 30 30 24 25 27 37 46 51 51 55 57 59 61 62 62 61 60 59 57 52 49 49 49 49 49 49 47 46 46 47 46 48 48 49 46 47 46 47 47 46 47 47 45 44 45
33 35 32 26 30 32 24 21 27 36 46 50 52 55 56 56 56 59 61 62 61 60 57 53 51 50 49 49 48 47 48 48 46 46 47 48 46 47 47 46 46 46 47 46 47 47 46 44 44
30 33 34 29 30 23 27 22 27 34 39 46 51 51 53 54 57 58 57 59 59 58 56 54 53 51 50 50 48 47 46 45 46 46 47 47 45 45 45 45 44 45 45 45 45 44 47 46 42
30 28 28 29 32 31 29 29 22 31 35 38 47 52 52 53 55 57 57 53 49 51 53 53 52 51 50 50 49 48 47 47 47 47 46 44 44 44 42 43 43 43 42 43 43 43 43 44 44
33 28 29 30 33 30 24 25 25 32 33 37 39 48 51 53 54 54 52 49 48 49 47 46 49 50 50 49 48 48 48 46 45 46 43 42 42 42 41 41 41 41 41 41 42 43 43 43 43
28 28 30 28 31 24 23 28 29 28 27 32 34 36 46 52 50 48 46 47 46 47 47 47 47 48 48 48 48 47 47 47 46 43 42 40 39 39 40 40 40 40 40 41 41 40 41 40 41
27 28 29 17 22 24 20 26 30 27 30 33 33 32 38 47 46 46 45 44 46 46 47 47 47 47 48 48 48 48 48 44 42 41 39 38 38 39 39 39 39 38 38 38 38 39 39 39 40
26 27 26 27 21 23 25 24 23 28 31 32 31 33 38 44 44 44 43 44 44 45 46 47 47 47 47 47 45 41 41 40 39 38 37 37 37 35 37 37 37 37 37 37 37 36 37 37 38
23 26 25 27 22 16 20 20 38 33 29 32 32 34 40 42 41 42 43 44 45 45 46 46 46 46 44 41 39 38 37 36 36 36 37 36 36 36 36 36 36 35 35 35 35 36 36 35 36
25 22 20 22 21 17 12 24 29 28 30 31 32 36 38 39 40 42 43 44 44 44 45 44 43 41 39 39 36 35 35 34 34 34 35 35 36 35 35 35 35 34 34 34 34 34 34 33 34
24 21 17 18 15 18 17 26 24 26 29 32 34 36 37 39 40 40 40 39 38 38 39 39 40 39 38 37 35 34 35 35 34 34 34 35 34 35 35 34 33 32 32 32 32 33 32 32 33
Lifted_Index
3 3 2 1 0 -0 0 1 2 2 1 0 -0 0 0 0 0 -0 -1 -1 -1 -2 -1 -1 -1 -1 -1 -1 -1 -1 -0 1 2 3 4 5 5 6 6 6 6 6 6 6 6 6 6 6 6
3 3 2 1 0 0 0 1 2 1 0 -1 -1 -1 -1 -1 -1 -1 -1 -1 -1 -1 -1 -1 -1 -1 -1 -1 -1 -0 1 3 4 5 5 6 6 6 6 6 6 6 6 6 6 6 6 6 6
4 4 2 1 1 1 0 0 1 -0 -1 -2 -2 -2 -2 -2 -2 -1 -1 -1 -2 -1 -1 -1 -2 -2 -2 -1 -0 1 3 5 6 6 6 6 6 6 6 7 7 6 6 6 6 6 6 6 6
5 4 3 3 2 1 0 0 -0 -1 -2 -3 -3 -3 -3 -3 -2 -2 -2 -2 -1 -1 -1 -1 -2 -2 -2 -1 1 3 5 6 7 7 6 6 6 6 7 7 7 7 6 6 6 6 6 6 7
5 5 4 4 3 2 1 0 -1 -2 -3 -4 -3 -3 -3 -3 -2 -2 -2 -2 -1 -1 -1 -1 -2 -2 -1 1 3 5 6 6 6 6 6 6 7 7 7 7 7 7 7 7 7 7 7 7 8
6 6 5 5 4 2 1 0 -1 -2 -3 -4 -4 -4 -3 -3 -3 -3 -2 -1 -1 -1 -1 -2 -2 -1 0 3 5 6 7 7 7 6 7 7 7 7 7 7 8 8 8 8 8 8 9 9 9
6 6 6 6 5 3 1 0 -1 -2 -3 -4 -4 -4 -4 -3 -3 -3 -2 -1 -1 -2 -2 -2 -2 -0 2 5 6 7 7 7 7 8 8 8 8 8 8 9 9 9 9 9 9 10 11 11 10
6 6 7 6 5 3 1 0 -0 -2 -3 -4 -4 -4 -4 -4 -4 -3 -2 -2 -2 -2 -2 -2 -1 1 4 7 7 7 8 9 9 9 10 10 10 10 10 10 10 10 10 10 11 11 12 13 13
5 6 7 6 5 4 2 1 -0 -2 -3 -4 -4 -4 -4 -4 -4 -3 -2 -2 -2 -2 -2 -2 -0 2 6 8 9 9 10 11 11 11 12 12 12 11 11 12 11 11 11 11 12 12 13 14 15
4 5 7 6 5 4 2 1 -0 -2 -3 -4 -4 -4 -4 -4 -4 -3 -2 -2 -2 -2 -2 -1 0 2 6 9 10 11 11 12 12 12 13 12 12 12 12 12 12 12 12 12 13 13 14 15 15
2 4 6 5 5 4 3 1 0 -1 -3 -4 -4 -4 -5 -4 -4 -3 -2 -2 -2 -2 -2 -1 0 3 6 9 10 11 12 12 13 13 13 13 12 12 12 12 12 13 13 13 13 14 14 15 15
1 2 4 4 4 4 3 2 1 -1 -2 -3 -4 -4 -5 -5 -4 -3 -2 -2 -2 -2 -2 -1 0 3 6 8 10 11 12 12 13 13 13 12 12 12 12 12 12 12 13 13 13 14 14 14 14
-0 1 2 3 3 3 4 3 2 0 -1 -3 -4 -5 -5 -4 -4 -3 -3 -3 -3 -2 -2 -1 1 3 5 8 10 11 12 12 13 13 12 12 12 12 12 12 12 12 12 13 13 14 14 14 14
-0 0 1 2 2 3 3 4 3 2 -1 -4 -5 -5 -4 -4 -4 -3 -3 -3 -3 -2 -2 -1 1 2 4 7 9 11 12 12 12 12 12 12 12 12 11 11 12 12 12 13 13 13 14 14 14
-0 0 1 1 2 2 3 4 4 2 -1 -4 -5 -5 -4 -4 -4 -4 -4 -3 -3 -2 -1 -0 1 1 3 5 8 10 11 12 12 12 12 12 12 12 11 11 11 12 12 12 13 13 13 13 13
-0 -0 0 1 1 1 2 3 3 2 -1 -4 -5 -5 -4 -4 -4 -4 -3 -3 -3 -2 -1 -1 -0 1 2 4 6 8 10 11 12 12 12 12 12 12 12 11 11 11 12 12 12 13 13 13 13
-0 -0 0 1 1 1 2 2 2 1 -1 -3 -4 -4 -4 -4 -3 -3 -3 -3 -3 -2 -2 -2 -1 -0 1 2 5 6 8 10 11 12 12 13 13 12 12 11 11 11 11 12 12 12 12 13 13
0 0 0 1 1 2 2 2 2 1 -1 -3 -4 -4 -4 -3 -3 -2 -2 -3 -3 -2 -2 -2 -2 -1 -0 2 3 5 6 8 10 11 12 12 13 12 11 11 11 11 11 11 12 12 12 12 13
1 1 0 1 1 2 2 2 2 1 -1 -2 -3 -4 -3 -3 -3 -2 -2 -2 -2 -2 -2 -2 -1 -1 -1 1 3 4 6 8 10 11 12 12 12 12 11 11 11 11 11 11 11 12 12 12 12
1 1 1 1 1 2 2 3 2 1 -1 -2 -3 -3 -3 -3 -2 -2 -2 -2 -2 -2 -2 -2 -1 -1 -1 1 2 4 6 8 10 11 11 12 12 12 12 12 12 11 11 11 11 12 12 12 12
1 1 1 1 1 1 2 2 2 1 -0 -1 -2 -2 -2 -2 -2 -1 -2 -2 -2 -2 -2 -2 -1 -1 -0 1 2 4 6 8 10 10 11 12 12 12 12 12 12 12 12 12 12 12 12 12 12
1 1 1 0 0 1 1 1 1 1 0 -1 -1 -1 -1 -1 -0 -0 -1 -1 -1 -2 -2 -1 -1 -1 -0 1 2 4 6 8 10 10 11 12 12 13 13 13 13 13 13 13 13 13 12 12 13
1 1 1 0 -0 0 0 1 1 1 0 -0 -1 -1 -1 0 1 1 0 -0 -1 -2 -2 -1 -1 -1 1 2 3 5 7 9 10 10 11 12 13 13 13 14 14 14 14 14 14 14 13 13 13
1 1 0 -0 -0 -0 0 0 0 0 1 0 -0 -1 -0 0 0 0 -0 -1 -1 -1 -1 -1 -0 1 4 5 5 7 8 9 10 11 11 12 13 13 13 14 14 14 14 15 15 14 14 14 14
1 0 -0 -0 -1 -0 0 0 -0 0 0 0 0 -0 -0 -0 -1 -1 -1 -1 -2 -1 -1 -0 2 5 7 7 8 8 9 10 11 11 12 12 13 13 13 14 14 14 15 15 15 15 15 14 14
0 0 -0 -0 -0 -0 0 0 0 0 0 1 0 0 0 -0 -1 -1 -1 -2 -2 -1 -0 2 5 8 9 9 9 9 10 11 11 12 12 13 13 13 13 14 14 15 15 15 15 15 15 15 15
1 0 0 0 0 0 1 1 1 1 1 1 1 1 1 0 -1 -1 -1 -1 -1 0 3 6 8 9 9 9 10 10 11 12 12 12 12 13 13 13 14 14 14 15 15 15 15 15 15 15 15
1 1 1 1 0 0 1 1 1 1 1 2 2 2 2 2 0 -0 -0 1 2 5 7 8 9 9 10 10 11 11 12 12 12 12 12 13 13 14 14 14 14 15 15 15 15 15 14 14 14
1 1 1 1 1 1 1 1 2 2 2 2 3 3 4 3 2 2 3 4 6 8 9 9 10 10 11 11 12 12 12 12 12 12 13 13 13 14 14 14 14 14 14 14 14 14 14 14 14
1 1 1 1 1 1 1 1 2 3 3 3 3 4 4 4 4 4 5 6 8 8 9 10 10 11 12 12 12 12 12 12 12 12 13 13 13 14 14 14 14 14 14 14 14 14 14 14 14